TimeMST,TemperatureF,Dew PointF,Humidity,Sea Level PressureIn,VisibilityMPH,Wind Direction,Wind SpeedMPH,Gust SpeedMPH,PrecipitationIn,Events,Conditions,WindDirDegrees,DateUTC
12:53 AM,30.9,19.0,61,30.00,10.0,NNW,3.5,-,N/A,,Clear,340,2013-02-17 07:53:00
1:53 AM,37.0,17.1,44,29.95,10.0,East,5.8,-,N/A,,Clear,100,2013-02-17 08:53:00
2:53 AM,39.9,14.0,35,29.90,10.0,SE,6.9,-,N/A,,Clear,130,2013-02-17 09:53:00
3:53 AM,41.0,12.9,32,29.86,10.0,SE,8.1,-,N/A,,Clear,140,2013-02-17 10:53:00
4:53 AM,39.9,14.0,35,29.85,10.0,SE,6.9,-,N/A,,Clear,140,2013-02-17 11:53:00
5:53 AM,39.9,12.9,33,29.85,10.0,SSE,4.6,-,N/A,,Clear,150,2013-02-17 12:53:00
6:53 AM,36.0,14.0,41,29.86,10.0,SSW,5.8,-,N/A,,Clear,200,2013-02-17 13:53:00
7:53 AM,35.1,15.1,44,29.87,10.0,South,9.2,-,N/A,,Clear,170,2013-02-17 14:53:00
8:53 AM,42.1,15.1,34,29.86,10.0,SSW,3.5,-,N/A,,Clear,210,2013-02-17 15:53:00
9:53 AM,44.1,21.0,40,29.84,10.0,NNE,6.9,-,N/A,,Clear,20,2013-02-17 16:53:00
10:53 AM,48.0,14.0,26,29.82,10.0,Calm,Calm,-,N/A,,Clear,0,2013-02-17 17:53:00
11:53 AM,52.0,10.9,19,29.78,10.0,SSW,12.7,17.3,N/A,,Clear,200,2013-02-17 18:53:00
12:53 PM,52.0,15.1,23,29.77,10.0,West,13.8,-,N/A,,Clear,280,2013-02-17 19:53:00
1:53 PM,53.1,12.9,20,29.73,10.0,WNW,11.5,-,N/A,,Clear,300,2013-02-17 20:53:00
2:53 PM,53.1,14.0,21,29.70,10.0,WNW,15.0,23.0,N/A,,Partly Cloudy,290,2013-02-17 21:53:00
3:53 PM,48.0,23.0,37,29.73,10.0,North,18.4,24.2,N/A,,Mostly Cloudy,350,2013-02-17 22:53:00
5:53 PM,39.9,24.1,53,29.85,10.0,North,10.4,-,N/A,,Clear,360,2013-02-18 00:53:00
6:53 PM,34.0,25.0,70,29.91,10.0,NNW,8.1,-,N/A,,Partly Cloudy,330,2013-02-18 01:53:00
7:53 PM,30.9,25.0,79,29.97,10.0,NNW,9.2,-,N/A,,Clear,340,2013-02-18 02:53:00
8:53 PM,28.9,23.0,78,29.97,10.0,NNW,9.2,-,N/A,,Clear,340,2013-02-18 03:53:00
10:53 PM,28.9,19.9,69,29.99,10.0,North,6.9,-,N/A,,Clear,360,2013-02-18 05:53:00
11:53 PM,25.0,21.0,85,30.00,10.0,WNW,5.8,-,N/A,,Partly Cloudy,300,2013-02-18 06:53:00